Find Starlink 32415

NORAD ID: 61861 Int'l Des: 2024-202 Owner: SPXS Country: US Constellation: starlink operational
LEOCIRCULAR

Live-Position

3D-Globus wird geladen...

Über Starlink 32415

Beschreibung wird geladen...

Nächste Überflüge

Passes for default location (London). Set your location on the main map for personalized predictions.

Höhenverlauf

Loading altitude history...

Zweizeiliger Elementsatz

1 61861U 24202S 26126.40850645 -.00000096 00000-0 60719-5 0 9995
2 61861 43.0072 272.1377 0002601 258.9373 101.1187 15.27558708 84150
Epoch: 6. Mai 2026 • Age: 11 hours

Aktueller Status

Höhe 488.0 km
Geschwindigkeit 7.63 km/s
Subsatellitenpunkt 43.08°N, 172.84°E
Startdatum 7. Nov. 2024
Alter 1.4 years
Typ internet

Technische Details

Klassifizierung Payload
Masse 730.00 kg
Trockenmasse 700.00 kg
Gesamtmasse 730.00 kg
Länge 0.30 m
Durchmesser 4.10 m
Spannweite 29.00 m
Form Box + pan
Hersteller SPXS
Bus-Typ Starlink V2M
Phasenstatus In Orbit
Besitzer/Staat SPXS/US

Most Searched